Location: *
(46.0770°N, 1.6444°E)
Time: 20:57:17
(UTC+00:00)

Cosmos 1980 - Pass Details

Date: 16 September 2019
Orbit: 841 x 846 km, 71.0° (Epoch: 14 October)

Event Time Altitude Azimuth Distance (km) Brightness Sun altitude
Rises 20:19:29 0° 331° (NNW) 3,408 7.8 -23.2°
Reaches altitude 10° 20:21:57 10° 330° (NNW) 2,468 6.9 -23.5°
Maximum altitude 20:27:34 71° 248° (WSW) 890 3.8 -24.4°
Enters shadow 20:29:11 47° 180° (S) 1,108 4.0 -24.6°
